Location: Rowland
(34.5359°N, 79.2929°W)
Time: 20:00:31
(UTC+00:00)

Transit 2A - Pass Details

Date: 09 October 2022
Orbit: 598 x 959 km, 66.7° (Epoch: 03 December)

Event Time Altitude Azimuth Distance (km) Brightness Sun altitude
Rises 12:38:09 0° 322° (NW) 3,057 8.6 15.2°
Reaches altitude 10° 12:40:32 10° 313° (NW) 2,190 7.9 15.7°
Maximum altitude 12:45:02 34° 249° (WSW) 1,229 6.9 16.6°
Drops below altitude 10° 12:49:56 10° 185° (S) 2,397 8.8 17.5°
Sets 12:52:41 0° 177° (S) 3,388 9.7 18.0°
